Location: Hamburg
(53.5554°N, 9.9941°E)
Time: 05:42:30
(UTC+01:00)

ISS - Pass Details

Date: 09 January 2018
Orbit: 402 x 407 km, 51.6° (Epoch: 20 January)

Event Time Altitude Azimuth Distance (km) Brightness Sun altitude
Exits shadow 05:48:59 40° 129° (SE) 620 -2.6 -23.2°
Drops below altitude 10° 05:51:18 10° 108° (ESE) 1,468 0.1 -22.8°
Sets 05:53:24 0° 104° (ESE) 2,329 1.5 -22.5°
